Location: Gerlach
(40.6516°N, 119.3568°W)
Time: 21:37:19
(UTC-08:00)

Vanguard 3 - Visible Passes

Search period start: 29 January 2023 00:00
Search period end: 08 February 2023 00:00
Orbit: 509 x 3252 km, 33.4° (Epoch: 29 January)

Date Brightness Start Highest point End Pass type
(mag) Time Alt. Az. Time Alt. Az. Time Alt. Az.
29 Jan 11.3 01:28:43 11° SE 01:28:43 11° SE 01:29:06 10° SE visible
29 Jan 10.8 03:33:12 20° SSW 03:33:12 20° SSW 03:38:25 10° S visible
29 Jan 9.6 19:13:17 10° SW 19:23:23 46° SSE 19:29:20 34° ESE visible
29 Jan 9.8 21:23:58 10° WSW 21:33:47 56° SW 21:33:47 56° SW visible
29 Jan 11.1 23:36:52 10° W 23:38:14 14° W 23:38:14 14° W visible
30 Jan 11.1 02:22:19 16° SSE 02:22:19 16° SSE 02:24:38 10° SSE visible
30 Jan 11.0 04:26:47 11° SW 04:26:47 11° SW 04:28:29 10° SSW visible
30 Jan 9.8 17:59:54 10° SSW 18:07:48 30° SE 18:18:15 13° E visible
30 Jan 9.5 20:08:57 10° WSW 20:20:16 59° SSE 20:22:43 55° SE visible
30 Jan 10.3 22:20:43 10° W 22:27:09 36° WSW 22:27:09 36° WSW visible
31 Jan11.601:11:26SE01:11:26SE00:31:36Wvisible
31 Jan 11.1 03:15:54 14° S 03:15:54 14° S 03:18:19 10° S visible
31 Jan 9.5 18:54:39 10° SW 19:03:55 47° SSE 19:11:36 28° E visible
31 Jan 9.5 21:05:13 10° WSW 21:16:02 63° SSW 21:16:02 63° SSW visible
31 Jan 10.9 23:17:48 10° W 23:20:29 19° W 23:20:29 19° W visible
01 Feb 9.7 17:41:13 10° SSW 17:48:28 31° SE 17:59:50 10° E visible
01 Feb 9.4 19:50:20 10° WSW 20:00:45 60° SSE 20:04:54 48° ESE visible
01 Feb 10.1 22:01:53 10° W 22:09:21 43° WSW 22:09:21 43° WSW visible
02 Feb 9.3 18:36:05 10° SW 18:44:34 47° SSE 18:53:45 22° E visible
02 Feb 9.4 20:46:34 10° WSW 20:58:09 65° S 20:58:11 65° S visible
02 Feb 10.7 22:58:51 10° W 23:02:38 23° W 23:02:38 23° W visible
03 Feb 9.2 19:31:48 10° WSW 19:41:21 60° SSE 19:47:01 41° ESE visible
03 Feb 9.8 21:43:08 10° W 21:51:28 49° WSW 21:51:28 49° WSW visible
04 Feb 9.2 18:17:36 10° SW 18:25:20 48° SSE 18:35:50 17° E visible
04 Feb 9.3 20:27:59 10° WSW 20:38:37 64° S 20:40:18 61° SSE visible
04 Feb 10.5 22:40:00 10° W 22:44:44 28° WSW 22:44:44 28° WSW visible
05 Feb 9.1 19:13:20 10° WSW 19:22:03 60° S 19:29:06 33° ESE visible
05 Feb 9.6 21:24:27 10° W 21:33:33 54° SW 21:33:33 54° SW visible
05 Feb 11.1 23:37:22 10° W 23:37:59 12° W 23:37:59 12° W visible
06 Feb 9.0 17:59:09 10° SW 18:06:12 48° SSE 18:17:56 11° E visible
06 Feb 9.2 20:09:27 10° W 20:19:12 62° S 20:22:23 53° SE visible
06 Feb 10.3 22:21:15 10° W 22:26:49 32° WSW 22:26:49 32° WSW visible
07 Feb 9.0 18:54:54 10° WSW 19:02:51 59° S 19:11:13 25° ESE visible
07 Feb 9.5 21:05:52 10° W 21:15:39 55° SSW 21:15:39 55° SSW visible
07 Feb 10.9 23:18:38 10° W 23:20:06 14° W 23:20:06 14° W visible
